contact:dominique.lefevre@mio.osupytheas.fr, maurice.libes@osupytheas.fr, didier.mallarino@osupytheas.fr
Project:EMSO http://www.emso-fr.org/EMSO-France
Depth: 2436.0 m
Title:EMSO Ligure Ouest : Data MII capteur AQUADOPP
Date,Latitude,Longitude,X_East,Y_North,Z_Up,Amplitude_X,Amplitude_Y,Amplitude_Z,Batterie,SoundSpeed,Heading,Pitch,Roll,Pressure,TIS,Speed,Direction
, degrees North, degrees East, m.s-1, m.s-1,m.s-1, 1, 1, 1, Volt, m.s-1, degree, degree, degree, dbar, degree_C, m.s-1, degree
2023-05-26T00:04:03,42.805,6.029,-0.024,-0.002,-0.019,102.0,103.0,101.0,13.3,1505.2,328.5,-0.7,1.8,2471.521,13.28,0.024,265.2
2023-05-26T00:07:03,42.805,6.029,-0.035,0.004,-0.056,104.0,102.0,101.0,13.4,1505.2,337.5,-0.8,1.8,2471.502,13.28,0.035,276.5
2023-05-26T00:10:03,42.805,6.029,-0.035,-0.015,-0.044,103.0,101.0,102.0,13.4,1505.2,326.5,-0.8,1.8,2471.493,13.28,0.038,246.8
2023-05-26T00:13:03,42.805,6.029,-0.022,-0.002,-0.034,101.0,101.0,102.0,13.3,1505.2,328.5,-0.8,1.8,2471.527,13.29,0.022,264.8
2023-05-26T00:16:03,42.805,6.029,-0.051,0.011,-0.039,101.0,101.0,101.0,13.4,1505.2,327.3,-0.8,1.8,2471.496,13.29,0.052,282.2
2023-05-26T00:19:03,42.805,6.029,-0.043,-0.018,-0.07,101.0,102.0,102.0,13.3,1505.2,336.9,-0.8,1.8,2471.474,13.29,0.046,247.3
2023-05-26T00:22:03,42.805,6.029,-0.054,-0.005,-0.04,102.0,101.0,101.0,13.4,1505.2,333.0,-0.8,1.8,2471.457,13.29,0.054,264.7
2023-05-26T00:25:03,42.805,6.029,-0.034,-0.006,-0.028,101.0,101.0,100.0,13.4,1505.2,324.9,-0.8,1.8,2471.447,13.29,0.034,260.0
2023-05-26T00:28:03,42.805,6.029,-0.018,-0.006,-0.064,102.0,101.0,101.0,13.4,1505.2,341.1,-0.8,1.8,2471.492,13.29,0.018,251.6
2023-05-26T00:31:03,42.805,6.029,-0.038,-0.005,-0.033,102.0,101.0,101.0,13.3,1505.2,325.5,-0.7,1.8,2471.459,13.29,0.038,262.5
2023-05-26T00:34:03,42.805,6.029,-0.055,0.003,-0.013,103.0,102.0,102.0,13.4,1505.2,321.6,-0.8,1.8,2471.484,13.29,0.055,273.1
2023-05-26T00:37:03,42.805,6.029,-0.036,-0.002,-0.057,103.0,101.0,100.0,13.4,1505.2,331.3,-0.8,1.8,2471.446,13.29,0.036,266.8
2023-05-26T00:40:03,42.805,6.029,-0.02,0.002,-0.037,101.0,101.0,101.0,13.4,1505.2,333.4,-0.8,1.8,2471.461,13.29,0.02,275.7
2023-05-26T00:43:03,42.805,6.029,-0.039,-0.014,-0.098,101.0,101.0,101.0,13.3,1505.2,345.9,-0.8,1.8,2471.468,13.29,0.041,250.3
2023-05-26T00:46:03,42.805,6.029,-0.034,0.004,-0.039,102.0,101.0,101.0,13.3,1505.2,323.1,-0.7,1.8,2471.453,13.29,0.034,276.7
2023-05-26T00:49:03,42.805,6.029,-0.043,-0.013,-0.058,102.0,102.0,101.0,13.3,1505.2,321.3,-0.8,1.8,2471.457,13.29,0.044,253.2
2023-05-26T00:52:03,42.805,6.029,-0.059,0.022,-0.06,102.0,102.0,101.0,13.3,1505.2,341.5,-0.8,1.8,2471.469,13.29,0.062,290.4
2023-05-26T00:55:03,42.805,6.029,-0.039,0.01,-0.007,102.0,101.0,101.0,13.4,1505.2,332.9,-0.8,1.8,2471.453,13.29,0.04,284.4
2023-05-26T00:58:03,42.805,6.029,-0.029,0.009,-0.042,101.0,101.0,101.0,13.3,1505.2,344.6,-0.8,1.8,2471.488,13.29,0.03,287.2
2023-05-26T01:04:03,42.805,6.029,-0.022,-0.006,-0.062,102.0,102.0,102.0,13.4,1505.2,327.8,-0.8,1.8,2471.501,13.28,0.022,254.7
2023-05-26T01:07:03,42.805,6.029,-0.049,-0.012,-0.081,101.0,102.0,100.0,13.3,1505.2,324.2,-0.8,1.8,2471.53,13.28,0.05,256.2
2023-05-26T01:10:03,42.805,6.029,-0.043,0.001,-0.058,102.0,101.0,101.0,13.3,1505.2,332.4,-0.8,1.8,2471.476,13.28,0.043,271.3
2023-05-26T01:13:03,42.805,6.029,-0.02,0.004,-0.017,102.0,101.0,101.0,13.4,1505.2,337.3,-0.8,1.8,2471.477,13.29,0.02,281.3
2023-05-26T01:16:03,42.805,6.029,-0.034,0.005,-0.012,101.0,103.0,101.0,13.4,1505.2,324.3,-0.8,1.8,2471.486,13.29,0.034,278.4
2023-05-26T01:19:03,42.805,6.029,-0.04,0.005,-0.055,103.0,101.0,100.0,13.3,1505.2,326.8,-0.8,1.8,2471.496,13.29,0.04,277.1
2023-05-26T01:22:03,42.805,6.029,-0.037,0.014,-0.031,101.0,103.0,100.0,13.4,1505.2,333.4,-0.8,1.8,2471.485,13.29,0.039,290.7
2023-05-26T01:25:03,42.805,6.029,-0.049,-0.001,-0.058,102.0,101.0,101.0,13.4,1505.2,321.2,-0.7,1.8,2471.502,13.29,0.049,268.8
2023-05-26T01:28:03,42.805,6.029,-0.034,0.021,-0.036,101.0,101.0,101.0,13.3,1505.2,334.4,-0.8,1.8,2471.445,13.29,0.039,301.7
2023-05-26T01:31:03,42.805,6.029,-0.045,-0.002,-0.044,103.0,100.0,102.0,13.4,1505.2,328.4,-0.8,1.8,2471.474,13.29,0.045,267.5
2023-05-26T01:34:03,42.805,6.029,-0.032,0.013,-0.034,102.0,100.0,100.0,13.4,1505.2,345.9,-0.7,1.8,2471.472,13.29,0.034,292.1
2023-05-26T01:37:03,42.805,6.029,-0.056,-0.003,-0.079,101.0,101.0,100.0,13.4,1505.2,325.5,-0.8,1.8,2471.44,13.29,0.056,266.9
2023-05-26T01:40:03,42.805,6.029,-0.039,0.001,-0.039,99.0,101.0,102.0,13.3,1505.2,323.1,-0.7,1.8,2471.472,13.29,0.039,271.5
2023-05-26T01:43:03,42.805,6.029,-0.055,0.016,-0.025,101.0,100.0,102.0,13.3,1505.2,334.4,-0.8,1.8,2471.461,13.29,0.057,286.2
2023-05-26T01:46:03,42.805,6.029,-0.02,0.011,-0.034,101.0,101.0,101.0,13.3,1505.2,335.0,-0.7,1.8,2471.472,13.29,0.022,298.8
2023-05-26T01:49:03,42.805,6.029,-0.052,0.0,-0.059,101.0,100.0,102.0,13.4,1505.2,327.6,-0.8,1.8,2471.445,13.29,0.052,270.0
2023-05-26T01:52:03,42.805,6.029,-0.039,0.007,-0.042,102.0,101.0,101.0,13.4,1505.2,346.2,-0.8,1.8,2471.386,13.29,0.039,280.2
2023-05-26T01:55:03,42.805,6.029,-0.05,-0.004,-0.023,102.0,100.0,102.0,13.3,1505.2,345.7,-0.8,1.8,2471.486,13.29,0.05,265.4
2023-05-26T01:58:03,42.805,6.029,-0.014,0.023,-0.031,102.0,102.0,101.0,13.4,1505.2,343.1,-0.8,1.8,2471.419,13.29,0.026,328.7
2023-05-26T02:04:03,42.805,6.029,-0.043,0.018,-0.016,102.0,101.0,101.0,13.4,1505.2,336.6,-0.8,1.8,2471.528,13.28,0.046,292.7
2023-05-26T02:07:03,42.805,6.029,-0.02,-0.004,-0.065,101.0,101.0,100.0,13.4,1505.2,334.5,-0.8,1.8,2471.485,13.28,0.02,258.7
2023-05-26T02:10:03,42.805,6.029,-0.039,0.024,-0.044,101.0,102.0,102.0,13.3,1505.2,348.0,-0.8,1.8,2471.475,13.28,0.045,301.6
2023-05-26T02:13:03,42.805,6.029,-0.036,-0.006,-0.057,102.0,101.0,101.0,13.4,1505.2,320.4,-0.8,1.8,2471.454,13.29,0.036,260.5
2023-05-26T02:16:03,42.805,6.029,-0.044,0.013,-0.03,101.0,102.0,101.0,13.4,1505.2,328.3,-0.8,1.8,2471.455,13.29,0.045,286.5
2023-05-26T02:19:03,42.805,6.029,-0.043,0.014,-0.083,102.0,102.0,101.0,13.4,1505.2,347.0,-0.8,1.8,2471.493,13.29,0.045,288.0
2023-05-26T02:22:03,42.805,6.029,-0.033,-0.015,-0.082,102.0,102.0,100.0,13.4,1505.2,325.5,-0.8,1.8,2471.446,13.29,0.036,245.6
2023-05-26T02:25:03,42.805,6.029,-0.024,0.023,-0.031,102.0,101.0,101.0,13.4,1505.2,336.6,-0.8,1.8,2471.437,13.29,0.033,313.8
2023-05-26T02:28:03,42.805,6.029,-0.058,0.018,-0.064,102.0,102.0,101.0,13.4,1505.2,337.1,-0.8,1.8,2471.445,13.29,0.06,287.2
2023-05-26T02:31:03,42.805,6.029,-0.017,0.008,-0.023,103.0,102.0,101.0,13.3,1505.2,347.0,-0.8,1.8,2471.437,13.29,0.018,295.2
2023-05-26T02:34:03,42.805,6.029,-0.053,-0.002,-0.03,102.0,103.0,101.0,13.4,1505.2,326.3,-0.8,1.8,2471.428,13.29,0.053,267.8
2023-05-26T02:37:03,42.805,6.029,-0.037,0.045,-0.011,104.0,101.0,102.0,13.3,1505.2,339.0,-0.8,1.8,2471.422,13.29,0.058,320.6
2023-05-26T02:40:03,42.805,6.029,-0.036,0.018,-0.02,103.0,102.0,100.0,13.4,1505.2,330.5,-0.8,1.8,2471.405,13.29,0.04,296.6
2023-05-26T02:43:03,42.805,6.029,-0.039,-0.001,-0.051,103.0,101.0,102.0,13.4,1505.2,330.1,-0.8,1.8,2471.466,13.29,0.039,268.5
2023-05-26T02:46:03,42.805,6.029,-0.036,0.009,-0.042,101.0,102.0,100.0,13.4,1505.2,333.9,-0.7,1.8,2471.472,13.29,0.037,284.0
2023-05-26T02:49:03,42.805,6.029,-0.036,0.018,-0.019,101.0,104.0,101.0,13.3,1505.2,345.9,-0.8,1.8,2471.457,13.29,0.04,296.6
2023-05-26T02:52:03,42.805,6.029,-0.063,0.02,-0.045,102.0,102.0,101.0,13.4,1505.2,342.7,-0.8,1.8,2471.431,13.29,0.066,287.6
2023-05-26T02:55:03,42.805,6.029,-0.036,0.015,-0.069,101.0,103.0,100.0,13.3,1505.2,347.0,-0.7,1.8,2471.462,13.29,0.039,292.6
2023-05-26T02:58:03,42.805,6.029,-0.055,0.026,-0.022,103.0,102.0,101.0,13.3,1505.2,334.9,-0.8,1.8,2471.412,13.29,0.06,295.3
2023-05-26T03:04:03,42.805,6.029,-0.032,0.029,-0.044,103.0,102.0,101.0,13.4,1505.2,347.8,-0.8,1.8,2471.436,13.28,0.043,312.2
2023-05-26T03:07:03,42.805,6.029,-0.022,-0.006,-0.028,102.0,102.0,101.0,13.3,1505.2,318.3,-0.7,1.8,2471.444,13.28,0.022,254.7
2023-05-26T03:10:03,42.805,6.029,-0.052,0.009,-0.053,102.0,102.0,102.0,13.3,1505.2,333.4,-0.8,1.8,2471.453,13.28,0.052,279.8
2023-05-26T03:13:03,42.805,6.029,-0.038,0.007,-0.05,102.0,101.0,101.0,13.3,1505.2,336.5,-0.8,1.8,2471.486,13.29,0.038,280.4
2023-05-26T03:16:03,42.805,6.029,-0.018,0.013,-0.033,102.0,102.0,100.0,13.4,1505.2,338.7,-0.8,1.8,2471.453,13.29,0.022,305.8
2023-05-26T03:19:03,42.805,6.029,-0.05,0.001,-0.08,101.0,101.0,101.0,13.4,1505.2,328.4,-0.7,1.8,2471.458,13.29,0.05,271.1
2023-05-26T03:22:03,42.805,6.029,-0.014,0.016,-0.036,101.0,102.0,101.0,13.4,1505.2,328.4,-0.8,1.8,2471.442,13.29,0.021,318.8
2023-05-26T03:25:03,42.805,6.029,-0.04,0.015,-0.032,101.0,102.0,101.0,13.3,1505.2,334.2,-0.8,1.8,2471.434,13.29,0.042,290.6
2023-05-26T03:28:03,42.805,6.029,-0.031,0.012,-0.023,102.0,102.0,102.0,13.3,1505.2,334.4,-0.7,1.8,2471.404,13.29,0.033,291.2
2023-05-26T03:31:03,42.805,6.029,-0.049,0.024,-0.019,102.0,101.0,101.0,13.3,1505.2,327.8,-0.8,1.8,2471.436,13.29,0.054,296.1
2023-05-26T03:34:03,42.805,6.029,-0.046,-0.006,-0.015,103.0,102.0,100.0,13.4,1505.2,329.0,-0.8,1.8,2471.428,13.29,0.046,262.6
2023-05-26T03:37:03,42.805,6.029,-0.045,0.008,-0.018,102.0,101.0,102.0,13.3,1505.2,325.1,-0.7,1.8,2471.423,13.29,0.045,280.1
2023-05-26T03:40:03,42.805,6.029,-0.043,0.027,-0.04,103.0,102.0,100.0,13.3,1505.2,344.2,-0.7,1.8,2471.429,13.29,0.05,302.1
2023-05-26T03:43:03,42.805,6.029,-0.021,0.038,-0.04,103.0,101.0,101.0,13.4,1505.2,345.1,-0.8,1.8,2471.402,13.29,0.043,331.1
2023-05-26T03:46:03,42.805,6.029,-0.051,0.032,-0.045,102.0,101.0,101.0,13.4,1505.2,337.6,-0.8,1.8,2471.37,13.29,0.06,302.1
2023-05-26T03:49:03,42.805,6.029,-0.051,0.016,-0.053,102.0,103.0,100.0,13.4,1505.2,322.9,-0.8,1.8,2471.391,13.29,0.053,287.4
2023-05-26T03:52:03,42.805,6.029,-0.028,0.005,-0.025,101.0,103.0,101.0,13.4,1505.2,336.5,-0.7,1.8,2471.362,13.29,0.028,280.1
2023-05-26T03:55:03,42.805,6.029,-0.043,0.027,-0.034,103.0,101.0,101.0,13.4,1505.2,336.1,-0.7,1.8,2471.382,13.29,0.05,302.1
2023-05-26T03:58:03,42.805,6.029,-0.063,0.02,-0.063,102.0,101.0,102.0,13.3,1505.2,332.5,-0.7,1.8,2471.442,13.29,0.066,287.6
2023-05-26T04:04:03,42.805,6.029,-0.041,0.017,-0.051,101.0,101.0,101.0,13.4,1505.2,326.8,-0.8,1.8,2471.437,13.28,0.044,292.5
2023-05-26T04:07:03,42.805,6.029,-0.055,0.019,-0.065,103.0,102.0,101.0,13.3,1505.2,338.2,-0.7,1.8,2471.433,13.28,0.058,289.1
2023-05-26T04:10:03,42.805,6.029,-0.046,0.021,-0.015,102.0,102.0,102.0,13.3,1505.2,330.5,-0.8,1.8,2471.441,13.28,0.05,294.5
2023-05-26T04:13:03,42.805,6.029,-0.047,0.021,-0.024,103.0,101.0,101.0,13.4,1505.2,331.7,-0.8,1.9,2471.412,13.29,0.051,294.1
2023-05-26T04:16:03,42.805,6.029,-0.018,0.033,-0.002,103.0,102.0,101.0,13.3,1505.2,322.4,-0.8,1.8,2471.427,13.29,0.037,331.4
2023-05-26T04:19:03,42.805,6.029,-0.047,0.022,-0.009,103.0,100.0,101.0,13.3,1505.2,326.3,-0.7,1.8,2471.372,13.29,0.051,295.1
2023-05-26T04:22:03,42.805,6.029,-0.062,0.042,-0.04,103.0,101.0,102.0,13.4,1505.2,334.7,-0.7,1.8,2471.408,13.29,0.074,304.1
2023-05-26T04:25:03,42.805,6.029,-0.015,0.034,-0.003,102.0,102.0,100.0,13.3,1505.2,332.9,-0.8,1.8,2471.414,13.29,0.037,336.2
2023-05-26T04:28:03,42.805,6.029,-0.011,0.028,-0.044,102.0,101.0,100.0,13.4,1505.2,345.9,-0.7,1.8,2471.401,13.29,0.03,338.6
2023-05-26T04:31:03,42.805,6.029,-0.03,0.024,-0.024,102.0,101.0,100.0,13.4,1505.2,347.0,-0.8,1.8,2471.407,13.29,0.038,308.7
2023-05-26T04:34:03,42.805,6.029,-0.039,0.013,-0.051,103.0,102.0,101.0,13.3,1505.2,319.2,-0.8,1.8,2471.412,13.29,0.041,288.4
2023-05-26T04:37:03,42.805,6.029,-0.02,0.019,-0.005,103.0,101.0,101.0,13.4,1505.2,326.8,-0.7,1.8,2471.404,13.29,0.027,313.5
2023-05-26T04:40:03,42.805,6.029,-0.025,0.021,-0.038,103.0,102.0,101.0,13.3,1505.2,324.1,-0.8,1.8,2471.402,13.29,0.032,310.0
2023-05-26T04:43:03,42.805,6.029,-0.041,0.006,-0.05,101.0,102.0,101.0,13.4,1505.2,326.8,-0.8,1.8,2471.392,13.29,0.041,278.3
2023-05-26T04:46:03,42.805,6.029,-0.05,0.014,-0.022,101.0,101.0,101.0,13.4,1505.2,330.9,-0.7,1.8,2471.413,13.29,0.051,285.6
2023-05-26T04:49:03,42.805,6.029,-0.042,0.001,-0.082,101.0,102.0,100.0,13.4,1505.2,319.8,-0.8,1.8,2471.327,13.29,0.042,271.4
2023-05-26T04:52:03,42.805,6.029,-0.028,0.016,-0.053,102.0,101.0,101.0,13.4,1505.2,327.9,-0.8,1.8,2471.385,13.29,0.032,299.7
2023-05-26T04:55:03,42.805,6.029,-0.018,0.032,-0.01,102.0,101.0,100.0,13.4,1505.2,324.1,-0.7,1.8,2471.384,13.29,0.036,330.6
2023-05-26T04:58:03,42.805,6.029,-0.03,0.016,-0.011,102.0,100.0,101.0,13.4,1505.2,326.3,-0.8,1.8,2471.431,13.29,0.034,298.1
2023-05-26T05:04:03,42.805,6.029,-0.015,0.009,-0.044,104.0,102.0,101.0,13.4,1505.2,330.3,-0.8,1.8,2471.466,13.28,0.017,301.0
2023-05-26T05:07:03,42.805,6.029,-0.061,0.008,-0.06,101.0,102.0,100.0,13.4,1505.2,332.1,-0.8,1.8,2471.471,13.29,0.061,277.5
2023-05-26T05:10:03,42.805,6.029,-0.031,0.001,-0.037,102.0,102.0,100.0,13.3,1505.2,328.2,-0.8,1.8,2471.458,13.29,0.031,271.8
2023-05-26T05:13:03,42.805,6.029,-0.053,0.023,-0.019,102.0,101.0,101.0,13.4,1505.2,330.3,-0.7,1.8,2471.413,13.29,0.057,293.5
2023-05-26T05:16:03,42.805,6.029,-0.062,0.019,-0.053,101.0,101.0,101.0,13.3,1505.2,334.8,-0.8,1.8,2471.405,13.29,0.064,287.0
2023-05-26T05:19:03,42.805,6.029,-0.047,0.041,-0.018,102.0,101.0,101.0,13.3,1505.2,331.2,-0.7,1.8,2471.384,13.29,0.062,311.1
2023-05-26T05:22:03,42.805,6.029,-0.03,0.023,-0.042,101.0,101.0,101.0,13.4,1505.2,330.8,-0.8,1.8,2471.379,13.29,0.037,307.5
2023-05-26T05:25:03,42.805,6.029,-0.018,0.029,-0.022,102.0,102.0,99.0,13.3,1505.2,335.0,-0.8,1.8,2471.381,13.29,0.034,328.2
2023-05-26T05:28:03,42.805,6.029,-0.028,0.03,-0.051,102.0,102.0,100.0,13.4,1505.2,345.9,-0.8,1.8,2471.382,13.29,0.041,317.0
2023-05-26T05:31:03,42.805,6.029,-0.037,0.019,-0.044,102.0,102.0,100.0,13.3,1505.2,325.0,-0.8,1.8,2471.382,13.29,0.041,297.2
2023-05-26T05:34:03,42.805,6.029,-0.032,0.024,-0.031,103.0,101.0,101.0,13.4,1505.2,331.1,-0.7,1.8,2471.402,13.29,0.04,306.9
2023-05-26T05:37:03,42.805,6.029,-0.006,0.023,-0.029,101.0,102.0,101.0,13.4,1505.2,344.8,-0.8,1.8,2471.429,13.29,0.023,345.4
2023-05-26T05:40:03,42.805,6.029,-0.04,0.042,-0.022,103.0,102.0,101.0,13.4,1505.2,341.2,-0.8,1.8,2471.358,13.29,0.057,316.4
2023-05-26T05:43:03,42.805,6.029,-0.048,0.018,-0.035,101.0,102.0,100.0,13.4,1505.2,328.7,-0.8,1.8,2471.365,13.29,0.051,290.6
2023-05-26T05:46:03,42.805,6.029,-0.05,0.052,-0.007,103.0,100.0,101.0,13.4,1505.2,318.9,-0.8,1.8,2471.321,13.29,0.072,316.1
2023-05-26T05:49:03,42.805,6.029,-0.028,0.028,-0.038,102.0,102.0,100.0,13.4,1505.2,327.2,-0.8,1.8,2471.368,13.29,0.039,315.0
2023-05-26T05:52:03,42.805,6.029,-0.025,0.011,-0.058,102.0,101.0,101.0,13.4,1505.2,330.4,-0.7,1.8,2471.363,13.29,0.027,293.7
2023-05-26T05:55:03,42.805,6.029,-0.05,0.041,-0.049,102.0,101.0,101.0,13.4,1505.2,330.3,-0.8,1.8,2471.4,13.29,0.064,309.3
2023-05-26T05:58:03,42.805,6.029,-0.028,0.04,-0.026,103.0,102.0,101.0,13.3,1505.2,345.6,-0.8,1.8,2471.35,13.29,0.048,325.0
2023-05-26T06:04:03,42.805,6.029,-0.05,0.016,-0.022,103.0,101.0,101.0,13.4,1505.2,321.4,-0.8,1.8,2471.413,13.28,0.052,287.7
2023-05-26T06:07:03,42.805,6.029,-0.04,0.023,-0.021,103.0,103.0,101.0,13.4,1505.2,326.5,-0.7,1.8,2471.419,13.29,0.046,299.9
2023-05-26T06:10:03,42.805,6.029,0.003,0.046,-0.02,102.0,101.0,101.0,13.4,1505.2,345.6,-0.8,1.8,2471.369,13.29,0.046,3.7
2023-05-26T06:13:03,42.805,6.029,-0.049,0.011,-0.015,103.0,103.0,101.0,13.4,1505.2,321.3,-0.8,1.8,2471.357,13.29,0.05,282.7
2023-05-26T06:16:03,42.805,6.029,-0.035,0.018,-0.01,102.0,102.0,101.0,13.3,1505.2,320.7,-0.8,1.8,2471.36,13.29,0.039,297.2
2023-05-26T06:19:03,42.805,6.029,-0.027,0.014,-0.02,102.0,102.0,101.0,13.4,1505.2,321.3,-0.8,1.8,2471.377,13.29,0.03,297.4
2023-05-26T06:22:03,42.805,6.029,-0.034,0.033,-0.016,101.0,102.0,101.0,13.3,1505.2,340.4,-0.8,1.8,2471.375,13.29,0.047,314.1
2023-05-26T06:25:03,42.805,6.029,-0.024,0.019,-0.039,102.0,102.0,101.0,13.4,1505.2,345.7,-0.8,1.8,2471.366,13.29,0.03,308.4
2023-05-26T06:28:03,42.805,6.029,-0.012,0.036,-0.008,103.0,102.0,101.0,13.4,1505.2,348.0,-0.7,1.8,2471.386,13.29,0.037,341.6
2023-05-26T06:31:03,42.805,6.029,-0.048,0.007,-0.052,102.0,101.0,102.0,13.3,1505.2,319.1,-0.8,1.8,2471.359,13.29,0.048,278.3
2023-05-26T06:34:03,42.805,6.029,-0.027,0.015,-0.031,104.0,102.0,101.0,13.4,1505.2,332.9,-0.8,1.8,2471.324,13.29,0.03,299.1
2023-05-26T06:37:03,42.805,6.029,-0.025,0.041,-0.014,103.0,102.0,100.0,13.3,1505.2,331.7,-0.8,1.8,2471.362,13.29,0.048,328.6
2023-05-26T06:40:03,42.805,6.029,-0.019,0.042,-0.022,103.0,101.0,101.0,13.4,1505.2,339.4,-0.7,1.8,2471.373,13.29,0.046,335.7
2023-05-26T06:43:03,42.805,6.029,-0.032,0.018,-0.047,103.0,101.0,101.0,13.3,1505.2,325.4,-0.8,1.8,2471.351,13.29,0.036,299.4
2023-05-26T06:46:03,42.805,6.029,-0.029,0.017,-0.005,103.0,102.0,101.0,13.4,1505.2,346.2,-0.8,1.8,2471.34,13.29,0.033,300.4
2023-05-26T06:49:03,42.805,6.029,-0.051,0.016,-0.061,104.0,102.0,100.0,13.3,1505.2,321.2,-0.8,1.8,2471.357,13.29,0.053,287.4
2023-05-26T06:52:03,42.805,6.029,-0.04,0.018,-0.032,102.0,101.0,101.0,13.4,1505.2,330.7,-0.8,1.8,2471.363,13.29,0.043,294.2
2023-05-26T06:55:03,42.805,6.029,-0.027,0.032,-0.005,103.0,101.0,101.0,13.4,1505.2,325.3,-0.8,1.8,2471.423,13.29,0.041,319.8
2023-05-26T06:58:03,42.805,6.029,-0.034,0.001,-0.009,103.0,103.0,101.0,13.4,1505.2,331.8,-0.8,1.8,2471.365,13.29,0.034,271.7
2023-05-26T07:04:03,42.805,6.029,-0.036,0.021,-0.025,103.0,102.0,101.0,13.4,1505.2,319.4,-0.8,1.8,2471.411,13.29,0.041,300.3
2023-05-26T07:07:03,42.805,6.029,-0.052,0.035,-0.01,102.0,102.0,101.0,13.3,1505.2,326.9,-0.8,1.8,2471.387,13.29,0.062,303.9
2023-05-26T07:10:03,42.805,6.029,-0.028,0.042,-0.029,104.0,101.0,101.0,13.4,1505.2,337.2,-0.8,1.8,2471.381,13.29,0.05,326.3
2023-05-26T07:13:03,42.805,6.029,-0.03,0.038,-0.027,103.0,103.0,101.0,13.4,1505.2,345.2,-0.7,1.8,2471.352,13.29,0.048,321.7
2023-05-26T07:16:03,42.805,6.029,-0.01,0.03,-0.01,103.0,102.0,103.0,13.3,1505.2,333.4,-0.7,1.8,2471.36,13.29,0.031,341.6
2023-05-26T07:19:03,42.805,6.029,-0.041,0.042,-0.008,102.0,104.0,100.0,13.4,1505.2,328.7,-0.8,1.8,2471.333,13.29,0.058,315.7
2023-05-26T07:22:03,42.805,6.029,-0.022,0.01,-0.035,103.0,102.0,101.0,13.3,1505.2,331.2,-0.8,1.8,2471.342,13.29,0.024,294.4
2023-05-26T07:25:03,42.805,6.029,-0.03,0.03,-0.011,102.0,103.0,102.0,13.4,1505.2,332.6,-0.8,1.8,2471.342,13.29,0.042,315.0
2023-05-26T07:28:03,42.805,6.029,-0.028,0.037,-0.024,103.0,102.0,101.0,13.4,1505.2,323.5,-0.8,1.9,2471.37,13.29,0.046,322.9
2023-05-26T07:31:03,42.805,6.029,-0.015,0.016,-0.018,104.0,103.0,101.0,13.3,1505.2,336.6,-0.8,1.8,2471.343,13.29,0.021,316.9
2023-05-26T07:34:03,42.805,6.029,-0.009,0.014,0.0,102.0,102.0,102.0,13.3,1505.2,329.2,-0.7,1.8,2471.358,13.29,0.016,327.3
2023-05-26T07:37:03,42.805,6.029,-0.04,0.047,-0.048,103.0,103.0,101.0,13.4,1505.2,343.1,-0.8,1.8,2471.384,13.29,0.061,319.6
2023-05-26T07:40:03,42.805,6.029,-0.025,0.011,-0.014,103.0,102.0,101.0,13.4,1505.2,321.3,-0.8,1.8,2471.353,13.29,0.027,293.7
2023-05-26T07:43:03,42.805,6.029,-0.037,0.007,-0.029,103.0,103.0,101.0,13.4,1505.2,324.3,-0.8,1.8,2471.359,13.29,0.037,280.7
2023-05-26T07:46:03,42.805,6.029,-0.028,0.021,-0.043,103.0,102.0,101.0,13.4,1505.2,321.3,-0.8,1.8,2471.372,13.29,0.035,306.9
2023-05-26T07:49:03,42.805,6.029,-0.037,0.029,-0.029,103.0,103.0,100.0,13.3,1505.2,337.6,-0.8,1.8,2471.368,13.29,0.047,308.1
2023-05-26T07:52:03,42.805,6.029,-0.024,0.007,-0.013,102.0,102.0,102.0,13.4,1505.2,326.3,-0.8,1.8,2471.31,13.29,0.025,286.3
2023-05-26T07:55:03,42.805,6.029,-0.045,0.011,-0.038,102.0,103.0,101.0,13.4,1505.2,326.0,-0.8,1.8,2471.387,13.29,0.046,283.7
2023-05-26T07:58:03,42.805,6.029,-0.038,0.021,-0.06,102.0,102.0,101.0,13.3,1505.2,334.2,-0.8,1.8,2471.364,13.29,0.043,298.9
2023-05-26T08:04:03,42.805,6.029,-0.03,0.032,-0.025,102.0,102.0,101.0,13.4,1505.2,343.7,-0.8,1.8,2471.402,13.29,0.043,316.9
2023-05-26T08:07:03,42.805,6.029,-0.02,0.041,0.0,102.0,102.0,101.0,13.4,1505.2,332.9,-0.8,1.8,2471.395,13.29,0.045,334.0
2023-05-26T08:10:03,42.805,6.029,-0.027,0.01,-0.03,103.0,102.0,100.0,13.3,1505.2,327.7,-0.8,1.8,2471.36,13.29,0.028,290.3
2023-05-26T08:13:03,42.805,6.029,-0.025,0.038,-0.023,103.0,102.0,101.0,13.4,1505.2,340.0,-0.8,1.8,2471.358,13.29,0.045,326.7
2023-05-26T08:16:03,42.805,6.029,-0.041,0.025,-0.055,103.0,102.0,101.0,13.4,1505.2,321.8,-0.8,1.8,2471.399,13.29,0.048,301.4
2023-05-26T08:19:03,42.805,6.029,-0.047,0.032,-0.035,102.0,102.0,101.0,13.4,1505.2,335.0,-0.8,1.8,2471.359,13.29,0.056,304.2
2023-05-26T08:22:03,42.805,6.029,-0.047,0.035,-0.019,102.0,102.0,101.0,13.4,1505.2,329.2,-0.8,1.8,2471.353,13.29,0.058,306.7
2023-05-26T08:25:03,42.805,6.029,-0.046,0.029,-0.024,103.0,102.0,100.0,13.4,1505.2,333.4,-0.8,1.8,2471.352,13.29,0.054,302.2
2023-05-26T08:28:03,42.805,6.029,-0.023,0.035,-0.037,102.0,103.0,101.0,13.3,1505.2,326.0,-0.7,1.8,2471.35,13.29,0.041,326.7
2023-05-26T08:31:03,42.805,6.029,-0.036,0.031,-0.052,102.0,102.0,102.0,13.4,1505.2,326.5,-0.8,1.8,2471.386,13.29,0.047,310.7
2023-05-26T08:34:03,42.805,6.029,-0.038,0.009,-0.051,103.0,102.0,101.0,13.4,1505.2,326.0,-0.8,1.8,2471.38,13.29,0.039,283.3
2023-05-26T08:37:03,42.805,6.029,-0.018,0.035,-0.027,104.0,102.0,100.0,13.4,1505.2,326.8,-0.8,1.8,2471.357,13.29,0.039,332.8
2023-05-26T08:40:03,42.805,6.029,-0.033,0.037,-0.013,102.0,102.0,101.0,13.4,1505.2,325.4,-0.8,1.8,2471.388,13.29,0.049,318.3
2023-05-26T08:43:03,42.805,6.029,-0.016,0.034,-0.006,102.0,102.0,101.0,13.4,1505.2,327.6,-0.8,1.8,2471.347,13.29,0.037,334.8
2023-05-26T08:46:03,42.805,6.029,-0.035,0.025,-0.038,103.0,102.0,102.0,13.4,1505.2,333.9,-0.7,1.8,2471.392,13.29,0.043,305.5
2023-05-26T08:49:03,42.805,6.029,-0.012,0.023,-0.041,102.0,102.0,101.0,13.4,1505.2,339.1,-0.7,1.8,2471.335,13.29,0.025,332.4
2023-05-26T08:52:03,42.805,6.029,-0.03,0.024,-0.031,103.0,102.0,101.0,13.3,1505.2,332.4,-0.7,1.8,2471.363,13.29,0.038,308.7
2023-05-26T08:55:03,42.805,6.029,-0.026,0.024,-0.011,103.0,102.0,101.0,13.3,1505.2,327.6,-0.8,1.8,2471.399,13.29,0.035,312.7
2023-05-26T08:58:03,42.805,6.029,-0.029,0.058,-0.041,102.0,101.0,100.0,13.4,1505.2,348.0,-0.7,1.8,2471.375,13.29,0.064,333.4
2023-05-26T09:04:03,42.805,6.029,-0.021,0.031,-0.026,101.0,102.0,101.0,13.3,1505.2,339.5,-0.8,1.8,2471.432,13.28,0.037,325.9
2023-05-26T09:07:03,42.805,6.029,-0.049,0.035,-0.045,102.0,104.0,101.0,13.4,1505.2,319.9,-0.8,1.8,2471.411,13.29,0.06,305.5
2023-05-26T09:10:03,42.805,6.029,-0.021,0.051,-0.033,102.0,102.0,101.0,13.3,1505.2,341.9,-0.8,1.8,2471.358,13.29,0.055,337.6
2023-05-26T09:13:03,42.805,6.029,-0.034,0.005,-0.014,101.0,102.0,102.0,13.4,1505.2,326.3,-0.8,1.8,2471.384,13.29,0.034,278.4
2023-05-26T09:16:03,42.805,6.029,-0.016,0.021,-0.026,103.0,103.0,100.0,13.3,1505.2,332.5,-0.8,1.8,2471.351,13.29,0.026,322.7
2023-05-26T09:19:03,42.805,6.029,0.006,0.026,-0.027,103.0,102.0,100.0,13.4,1505.2,318.2,-0.8,1.8,2471.408,13.29,0.026,13.0
2023-05-26T09:22:03,42.805,6.029,-0.021,0.021,-0.021,103.0,102.0,102.0,13.3,1505.2,319.1,-0.8,1.8,2471.36,13.29,0.029,315.0
2023-05-26T09:25:03,42.805,6.029,-0.035,0.033,-0.043,103.0,101.0,101.0,13.4,1505.2,341.1,-0.8,1.8,2471.373,13.29,0.048,313.3
2023-05-26T09:28:03,42.805,6.029,-0.032,0.023,-0.012,102.0,103.0,100.0,13.4,1505.2,319.4,-0.8,1.8,2471.397,13.29,0.039,305.7
2023-05-26T09:31:03,42.805,6.029,-0.026,0.025,-0.035,103.0,102.0,100.0,13.4,1505.2,337.5,-0.7,1.8,2471.378,13.29,0.036,313.9
2023-05-26T09:34:03,42.805,6.029,-0.025,0.028,-0.023,103.0,101.0,100.0,13.4,1505.2,344.5,-0.7,1.8,2471.36,13.29,0.037,318.2
2023-05-26T09:37:03,42.805,6.029,-0.015,0.039,-0.016,102.0,102.0,101.0,13.3,1505.2,333.8,-0.8,1.9,2471.363,13.29,0.041,339.0
2023-05-26T09:40:03,42.805,6.029,-0.026,0.061,0.003,101.0,103.0,100.0,13.4,1505.2,336.0,-0.8,1.8,2471.372,13.29,0.066,336.9
2023-05-26T09:43:03,42.805,6.029,0.008,0.027,-0.018,102.0,102.0,100.0,13.4,1505.2,337.5,-0.7,1.8,2471.403,13.29,0.028,16.5
2023-05-26T09:46:03,42.805,6.029,-0.001,0.024,-0.013,103.0,101.0,101.0,13.4,1505.2,346.5,-0.8,1.8,2471.358,13.29,0.024,357.6
2023-05-26T09:49:03,42.805,6.029,-0.02,0.014,-0.05,103.0,101.0,100.0,13.4,1505.2,338.5,-0.7,1.8,2471.35,13.29,0.024,305.0
2023-05-26T09:52:03,42.805,6.029,-0.001,0.043,0.012,104.0,101.0,101.0,13.4,1505.2,328.6,-0.7,1.8,2471.396,13.29,0.043,358.7